DW5684 Weather Reports


Display with metric or nautical units.
time (UTC)temp
F
wind
direction
speed
MPH
gust
MPH
rain 1hr
in
rain 24hr
in
rain mn
in
humidity
%
barometer
mb
20260507172759 66 229 2.0 5.0 0.00 0.00 0.00 47 1017.9
20260507172313 66 295 2.0 5.0 0.00 0.00 0.00 47 1018.0
20260507171809 65 288 1.0 4.0 0.00 0.00 0.00 49 1018.1
20260507171303 64 219 1.0 4.0 0.00 0.00 0.00 49 1018.2
20260507170757 65 284 1.0 6.0 0.00 0.00 0.00 47 1018.4
20260507170312 65 192 2.0 6.0 0.00 0.00 0.00 46 1018.4
20260507165806 65 162 2.0 6.0 0.00 0.00 0.00 48 1018.5
20260507165301 65 219 1.0 3.0 0.00 0.00 0.00 48 1018.6
20260507164800 64 272 0.0 5.0 0.00 0.00 0.00 46 1018.6
20260507164255 65 282 1.0 6.0 0.00 0.00 0.00 45 1018.8
20260507163829 65 233 1.0 5.0 0.00 0.00 0.00 46 1018.7
20260507163303 65 264 1.0 5.0 0.00 0.00 0.00 44 1018.7
20260507162758 65 141 1.0 4.0 0.00 0.00 0.00 45 1018.7
20260507162311 65 198 0.0 3.0 0.00 0.00 0.00 45 1018.7
20260507161806 64 221 1.0 6.0 0.00 0.00 0.00 48 1018.7
20260507161301 64 223 2.0 6.0 0.00 0.00 0.00 47 1018.8
20260507160757 63 142 3.0 8.0 0.00 0.00 0.00 51 1018.7
20260507160257 63 210 3.0 8.0 0.00 0.00 0.00 46 1018.7
20260507155812 63 152 2.0 6.0 0.00 0.00 0.00 50 1018.7
20260507155306 63 225 3.0 6.0 0.00 0.00 0.00 46 1018.8
20260507154801 62 142 2.0 8.0 0.00 0.00 0.00 47 1018.8
20260507154256 62 206 4.0 8.0 0.00 0.00 0.00 46 1018.8
20260507153810 63 233 3.0 5.0 0.00 0.00 0.00 46 1018.8
20260507153305 63 207 2.0 5.0 0.00 0.00 0.00 48 1018.9
20260507152803 62 212 2.0 5.0 0.00 0.00 0.00 50 1018.9
20260507152258 62 201 2.0 6.0 0.00 0.00 0.00 49 1019.0
20260507151812 62 208 3.0 6.0 0.00 0.00 0.00 47 1019.1
20260507151325 62 210 3.0 5.0 0.00 0.00 0.00 49 1019.1
20260507150759 62 221 1.0 5.0 0.00 0.00 0.00 51 1019.2
20260507150314 61 260 0.0 4.0 0.00 0.00 0.00 48 1019.2
20260507145830 61 292 2.0 4.0 0.00 0.00 0.00 50 1019.2
20260507145306 61 194 2.0 5.0 0.00 0.00 0.00 49 1019.2
20260507144757 61 236 3.0 5.0 0.00 0.00 0.00 47 1019.2
20260507144256 61 214 2.0 4.0 0.00 0.00 0.00 52 1019.3
20260507143811 60 170 1.0 5.0 0.00 0.00 0.00 52 1019.2
20260507143306 60 203 2.0 7.0 0.00 0.00 0.00 51 1019.2
20260507142801 59 195 3.0 8.0 0.00 0.00 0.00 50 1019.2
20260507142256 59 200 3.0 8.0 0.00 0.00 0.00 51 1019.2
20260507141831 59 139 2.0 5.0 0.00 0.00 0.00 57 1019.3
20260507141305 59 167 3.0 6.0 0.00 0.00 0.00 55 1019.4
20260507140801 59 220 2.0 6.0 0.00 0.00 0.00 53 1019.4
20260507140301 59 186 2.0 6.0 0.00 0.00 0.00 58 1019.4
20260507135813 58 170 2.0 9.0 0.00 0.00 0.00 57 1019.4
20260507135328 57 232 2.0 9.0 0.00 0.00 0.00 58 1019.4
20260507134802 58 212 3.0 4.0 0.00 0.00 0.00 55 1019.4
20260507134317 58 197 2.0 4.0 0.00 0.00 0.00 58 1019.5
20260507133811 58 175 2.0 4.0 0.00 0.00 0.00 60 1019.5
20260507133306 57 156 1.0 5.0 0.00 0.00 0.00 59 1019.4
20260507132801 57 183 2.0 5.0 0.00 0.00 0.00 59 1019.4
20260507132256 57 179 1.0 3.0 0.00 0.00 0.00 62 1019.5
20260507131756 56 172 1.0 4.0 0.00 0.00 0.00 63 1019.6
20260507131311 56 188 0.0 4.0 0.00 0.00 0.00 63 1019.6
20260507130806 57 195 0.0 2.0 0.00 0.00 0.00 64 1019.5
20260507130300 57 206 1.0 2.0 0.00 0.00 0.00 62 1019.4
20260507125835 57 192 0.0 1.0 0.00 0.00 0.00 67 1019.4
20260507125309 57 168 0.0 1.0 0.00 0.00 0.00 63 1019.4
20260507124803 56 217 0.0 0.0 0.00 0.00 0.00 68 1019.4
20260507124257 53 221 0.0 0.0 0.00 0.00 0.00 74 1019.4
20260507123755 51 220 0.0 0.0 0.00 0.00 0.00 76 1019.4
20260507123310 49 220 0.0 0.0 0.00 0.00 0.00 80 1019.2
20260507122805 46 188 0.0 0.0 0.00 0.00 0.00 86 1019.2
20260507122321 45 225 0.0 0.0 0.00 0.00 0.00 86 1019.2
20260507121755 44 225 0.0 0.0 0.00 0.00 0.00 86 1019.2
20260507121310 44 225 0.0 0.0 0.00 0.00 0.00 86 1019.2
20260507120805 45 225 0.0 0.0 0.00 0.00 0.00 86 1019.2
20260507120300 45 225 0.0 0.0 0.00 0.00 0.00 86 1019.2
20260507115759 44 225 0.0 0.0 0.00 0.00 0.00 87 1019.1
20260507115314 44 230 0.0 0.0 0.00 0.00 0.00 87 1019.1
20260507114809 44 233 0.0 0.0 0.00 0.00 0.00 88 1018.9
20260507114324 43 245 0.0 0.0 0.00 0.00 0.00 90 1019.0
20260507113757 42 290 0.0 0.0 0.00 0.00 0.00 90 1018.9
20260507113312 42 290 0.0 0.0 0.00 0.00 0.00 90 1019.0
20260507112827 42 290 0.0 0.0 0.00 0.00 0.00 90 1019.1
20260507112322 42 290 0.0 0.0 0.00 0.00 0.00 90 1019.0
20260507111755 42 290 0.0 0.0 0.00 0.00 0.00 90 1019.0
20260507111310 42 290 0.0 0.0 0.00 0.00 0.00 90 1018.8
20260507110804 43 290 0.0 0.0 0.00 0.00 0.00 91 1018.7
20260507110303 43 290 0.0 0.0 0.00 0.00 0.00 91 1018.7
20260507105758 43 290 0.0 0.0 0.00 0.00 0.00 91 1018.6
20260507105312 43 290 0.0 0.0 0.00 0.00 0.00 92 1018.6
20260507104828 43 290 0.0 0.0 0.00 0.00 0.00 92 1018.6
20260507104302 43 290 0.0 0.0 0.00 0.00 0.00 92 1018.6
20260507103814 43 290 0.0 0.0 0.00 0.00 0.00 92 1018.6
20260507103309 43 290 0.0 0.0 0.00 0.00 0.00 93 1018.5
20260507102804 44 290 0.0 0.0 0.00 0.00 0.00 94 1018.6
20260507102259 44 290 0.0 0.0 0.00 0.00 0.00 94 1018.6
20260507101757 43 290 0.0 0.0 0.00 0.00 0.00 94 1018.6
20260507101312 43 290 0.0 0.0 0.00 0.00 0.00 94 1018.6
20260507100806 43 290 0.0 0.0 0.00 0.00 0.00 94 1018.5
20260507100321 43 290 0.0 0.0 0.00 0.00 0.00 94 1018.6
20260507095835 43 290 0.0 0.0 0.00 0.00 0.00 94 1018.6
20260507095309 43 290 0.0 0.0 0.00 0.00 0.00 94 1018.5
20260507094804 43 290 0.0 0.0 0.00 0.00 0.00 94 1018.6
20260507094319 43 290 0.0 0.0 0.00 0.00 0.00 94 1018.6
20260507093812 43 290 0.0 0.0 0.00 0.00 0.00 94 1018.6
20260507093307 43 290 0.0 0.0 0.00 0.00 0.00 95 1018.7
20260507092803 42 290 0.0 0.0 0.00 0.00 0.00 95 1018.7
20260507092258 42 290 0.0 0.0 0.00 0.00 0.00 95 1018.8
20260507091812 42 290 0.0 0.0 0.00 0.00 0.00 95 1018.9
20260507091307 41 290 0.0 0.0 0.00 0.00 0.00 95 1018.7
20260507090823 41 290 0.0 0.0 0.00 0.00 0.00 95 1018.8
20260507090257 41 290 0.0 0.0 0.00 0.00 0.00 95 1018.6
20260507085811 41 290 0.0 0.0 0.00 0.00 0.00 95 1018.6
20260507085306 40 290 0.0 0.0 0.00 0.00 0.00 95 1018.7
20260507084759 40 290 0.0 0.0 0.00 0.00 0.00 95 1018.6
20260507084313 40 290 0.0 0.0 0.00 0.00 0.00 95 1018.4
20260507083828 39 290 0.0 0.0 0.00 0.00 0.00 95 1018.5
20260507083322 39 290 0.0 0.0 0.00 0.00 0.00 94 1018.6
20260507082757 38 290 0.0 0.0 0.00 0.00 0.00 94 1018.6
20260507082311 38 290 0.0 0.0 0.00 0.00 0.00 94 1018.7
20260507081807 38 290 0.0 0.0 0.00 0.00 0.00 94 1018.6
20260507081321 38 290 0.0 0.0 0.00 0.00 0.00 93 1018.7
20260507080814 38 290 0.0 0.0 0.00 0.00 0.00 93 1018.6
20260507080310 38 290 0.0 0.0 0.00 0.00 0.00 93 1018.6
20260507075826 37 290 0.0 0.0 0.00 0.00 0.00 93 1018.6
20260507075300 38 290 0.0 0.0 0.00 0.00 0.00 93 1018.6
20260507074755 38 290 0.0 0.0 0.00 0.00 0.00 93 1018.7
20260507074310 38 290 0.0 0.0 0.00 0.00 0.00 93 1018.7
20260507073809 38 290 0.0 0.0 0.00 0.00 0.00 93 1018.7
20260507073304 38 290 0.0 0.0 0.00 0.00 0.00 92 1018.8
20260507072800 38 290 0.0 0.0 0.00 0.00 0.00 92 1018.8
20260507072255 39 290 0.0 0.0 0.00 0.00 0.00 92 1018.9
20260507071811 39 290 0.0 0.0 0.00 0.00 0.00 92 1019.0
20260507071326 39 290 0.0 0.0 0.00 0.00 0.00 93 1019.0
20260507070759 39 290 0.0 0.0 0.00 0.00 0.00 92 1019.2
20260507070313 39 290 0.0 0.0 0.00 0.00 0.00 92 1019.2
20260507065807 39 290 0.0 0.0 0.00 0.00 0.00 92 1019.2
20260507065306 39 290 0.0 0.0 0.00 0.00 0.00 92 1019.2
20260507064802 39 290 0.0 0.0 0.00 0.00 0.00 91 1019.2
20260507064257 39 290 0.0 0.0 0.00 0.00 0.00 91 1019.2
20260507063831 39 290 0.0 0.0 0.00 0.00 0.00 92 1019.3
20260507062801 39 290 0.0 0.0 0.00 0.00 0.00 91 1019.2
20260507062317 39 290 0.0 0.0 0.00 0.00 0.00 90 1019.2
20260507061813 39 290 0.0 0.0 0.00 0.00 0.00 90 1019.2
20260507061311 39 290 0.0 0.0 0.00 0.00 0.00 90 1019.2
20260507060806 39 290 0.0 0.0 0.00 0.00 0.00 90 1019.3
20260507060301 39 290 0.0 0.0 0.00 0.00 0.00 89 1019.3
20260507055757 40 290 0.0 0.0 0.00 0.00 0.00 89 1019.3
20260507055311 40 290 0.0 0.0 0.00 0.00 0.00 88 1019.2
20260507054806 40 290 0.0 0.0 0.00 0.00 0.00 88 1019.2
20260507054321 40 290 0.0 0.0 0.00 0.00 0.00 87 1019.3
20260507053834 40 290 0.0 0.0 0.00 0.00 0.00 87 1019.2
20260507053308 40 290 0.0 0.0 0.00 0.00 0.00 85 1019.2
20260507052823 41 290 0.0 0.0 0.00 0.00 0.00 86 1019.3
20260507052301 41 290 0.0 0.0 0.00 0.00 0.00 87 1019.2
20260507051757 41 290 0.0 0.0 0.00 0.00 0.00 87 1019.3
20260507051312 41 290 0.0 0.0 0.00 0.00 0.00 88 1019.3
20260507050807 41 290 0.0 0.0 0.00 0.00 0.00 88 1019.2
20260507050302 41 290 0.0 0.0 0.00 0.00 0.00 88 1019.2
20260507045817 41 290 0.0 0.0 0.00 0.00 0.00 86 1019.2
20260507045310 41 290 0.0 0.0 0.00 0.00 0.00 85 1019.2
20260507044805 41 290 0.0 0.0 0.00 0.00 0.00 85 1019.2
20260507044304 41 290 0.0 0.0 0.00 0.00 0.00 85 1019.1
20260507043800 41 290 0.0 0.0 0.00 0.00 0.00 84 1019.2
20260507043335 42 290 0.0 0.0 0.00 0.00 0.00 84 1019.1
20260507042809 42 290 0.0 0.0 0.00 0.00 0.00 84 1019.1
20260507042307 42 290 0.0 0.0 0.00 0.00 0.00 83 1019.1
20260507041759 42 290 0.0 0.0 0.00 0.00 0.00 83 1019.0
20260507041256 42 290 0.0 0.0 0.00 0.00 0.00 83 1019.1
20260507040810 42 290 0.0 0.0 0.00 0.00 0.00 84 1019.0
20260507040309 42 290 0.0 0.0 0.00 0.00 0.00 84 1019.0
20260507035805 42 290 0.0 0.0 0.00 0.00 0.00 84 1018.9
20260507035320 42 290 0.0 0.0 0.00 0.00 0.00 84 1019.0
20260507034813 42 290 0.0 0.0 0.00 0.00 0.00 84 1018.9
20260507034308 43 290 0.0 0.0 0.00 0.00 0.00 83 1018.9
20260507033803 43 290 0.0 0.0 0.00 0.00 0.00 83 1018.9
20260507033319 43 290 0.0 0.0 0.00 0.00 0.00 82 1018.9
20260507032814 43 290 0.0 0.0 0.00 0.00 0.00 82 1018.8
20260507032313 44 290 0.0 0.0 0.00 0.00 0.00 81 1018.8
20260507031807 44 290 0.0 0.0 0.00 0.00 0.00 81 1018.7
20260507031302 44 290 0.0 0.0 0.00 0.00 0.00 79 1018.8
20260507030817 44 290 0.0 0.0 0.00 0.00 0.00 79 1018.9
20260507030310 44 290 0.0 0.0 0.00 0.00 0.00 80 1018.8
20260507025827 45 290 0.0 0.0 0.00 0.00 0.00 79 1018.8
20260507025320 45 290 0.0 0.0 0.00 0.00 0.00 78 1018.7
20260507024814 45 290 0.0 0.0 0.00 0.00 0.00 78 1018.8
20260507024309 45 290 0.0 0.0 0.00 0.00 0.00 77 1018.7
20260507023805 46 290 0.0 0.0 0.00 0.00 0.00 79 1018.8
20260507023304 46 290 0.0 0.0 0.00 0.00 0.00 77 1018.7
20260507020809 47 290 0.0 0.0 0.00 0.00 0.00 74 1018.3
20260507020304 48 290 0.0 0.0 0.00 0.00 0.00 72 1018.3
20260507015819 48 290 0.0 0.0 0.00 0.00 0.00 70 1018.3
20260507015333 49 290 0.0 0.0 0.00 0.00 0.00 70 1018.2
20260507014807 49 290 0.0 0.0 0.00 0.00 0.00 69 1018.2
20260507014326 50 289 0.0 0.0 0.00 0.00 0.00 66 1018.1
20260507013819 50 314 0.0 0.0 0.00 0.00 0.00 67 1018.0
20260507013314 51 316 0.0 0.0 0.00 0.00 0.00 66 1018.0
20260507012809 51 317 0.0 0.0 0.00 0.00 0.00 63 1017.8
20260507012306 52 317 0.0 1.0 0.00 0.00 0.00 62 1017.8
20260507011819 52 316 0.0 1.0 0.00 0.00 0.00 62 1017.8
20260507011314 53 312 0.0 1.0 0.00 0.00 0.00 61 1017.7
20260507010809 54 345 0.0 1.0 0.00 0.00 0.00 58 1017.7
20260507010308 54 311 0.0 0.0 0.00 0.00 0.00 59 1017.6
20260507005803 55 321 0.0 0.0 0.00 0.02 0.00 57 1017.7
20260507005318 55 356 0.0 3.0 0.00 0.02 0.00 56 1017.6
20260507004813 56 267 0.0 4.0 0.00 0.02 0.00 54 1017.6
20260507004308 56 357 1.0 5.0 0.00 0.02 0.00 53 1017.6
20260507003802 57 343 1.0 7.0 0.00 0.02 0.00 54 1017.6
20260507003336 57 27 2.0 5.0 0.00 0.02 0.00 53 1017.5
20260507002810 57 305 1.0 4.0 0.00 0.02 0.00 52 1017.4
20260507002329 58 340 1.0 4.0 0.00 0.02 0.00 51 1017.3
20260507001803 58 316 1.0 4.0 0.00 0.02 0.00 54 1017.1
20260507001317 57 301 1.0 2.0 0.00 0.02 0.00 56 1017.1
20260507000832 57 19 0.0 2.0 0.00 0.02 0.00 55 1016.9
20260507000328 58 287 0.0 2.0 0.00 0.02 0.00 55 1016.8
20260506235800 58 291 0.0 3.0 0.00 0.03 0.00 54 1016.8
20260506235314 58 58 0.0 5.0 0.00 0.03 0.00 55 1016.9
20260506234807 59 154 0.0 4.0 0.00 0.03 0.00 54 1016.8
20260506234302 59 330 2.0 5.0 0.00 0.03 0.00 51 1016.8
20260506233801 60 304 1.0 5.0 0.00 0.03 0.00 51 1016.8
20260506233316 60 239 1.0 5.0 0.00 0.03 0.00 48 1016.6
20260506232830 60 7 2.0 7.0 0.00 0.03 0.00 51 1016.7
20260506232306 59 334 3.0 6.0 0.00 0.03 0.00 50 1016.6
20260506231818 60 156 0.0 5.0 0.00 0.03 0.00 50 1016.5
20260506231313 60 15 2.0 5.0 0.00 0.03 0.00 50 1016.7
20260506230807 60 329 1.0 5.0 0.00 0.03 0.00 48 1016.9
20260506230302 60 35 2.0 5.0 0.00 0.03 0.00 52 1017.0
20260506225814 60 274 1.0 5.0 0.00 0.03 0.00 48 1016.9
20260506225309 60 310 2.0 6.0 0.00 0.03 0.00 50 1016.8
20260506224808 61 293 3.0 9.0 0.00 0.03 0.00 47 1016.7
20260506224302 61 3 3.0 9.0 0.00 0.03 0.00 49 1016.6
20260506223814 61 15 2.0 9.0 0.00 0.03 0.00 53 1016.6
20260506223308 62 328 1.0 7.0 0.00 0.03 0.00 52 1016.6
20260506222801 62 309 2.0 6.0 0.00 0.03 0.00 49 1016.8
20260506222316 62 238 2.0 7.0 0.00 0.03 0.00 52 1016.8
20260506221810 62 56 3.0 7.0 0.00 0.03 0.00 48 1016.7
20260506221308 62 328 1.0 6.0 0.00 0.03 0.00 49 1016.6
20260506220803 62 25 1.0 6.0 0.00 0.03 0.00 49 1016.7
20260506220338 62 149 2.0 6.0 0.00 0.03 0.00 52 1016.8
20260506215811 62 15 1.0 7.0 0.00 0.03 0.00 49 1016.7
20260506215306 62 5 2.0 8.0 0.00 0.03 0.00 50 1016.7
20260506214801 62 293 1.0 8.0 0.00 0.03 0.00 49 1016.6
20260506214316 62 311 3.0 9.0 0.00 0.03 0.00 52 1016.7
20260506213831 63 300 4.0 9.0 0.00 0.03 0.00 50 1016.7
20260506213305 62 326 2.0 8.0 0.00 0.03 0.00 50 1016.8
20260506212804 61 353 2.0 5.0 0.00 0.03 0.00 51 1016.8
20260506212319 61 266 1.0 7.0 0.00 0.03 0.00 54 1016.8
20260506211814 61 344 2.0 11.0 0.00 0.03 0.00 50 1016.8
20260506211309 62 352 2.0 11.0 0.00 0.03 0.00 52 1016.8
20260506210804 62 288 4.0 9.0 0.00 0.03 0.00 50 1016.9
20260506210338 62 33 2.0 7.0 0.00 0.03 0.00 50 1016.9
20260506205832 62 330 0.0 11.0 0.00 0.03 0.00 49 1016.9
20260506205306 62 310 4.0 10.0 0.00 0.03 0.00 48 1017.1
20260506204804 62 360 2.0 11.0 0.00 0.03 0.00 55 1017.1
20260506204319 62 328 2.0 11.0 0.00 0.03 0.00 52 1017.1
20260506203814 62 70 5.0 11.0 0.00 0.03 0.00 48 1017.2
20260506203308 63 143 3.0 10.0 0.00 0.03 0.00 46 1017.1
20260506202802 63 318 2.0 10.0 0.00 0.03 0.00 51 1017.2
20260506202317 63 143 2.0 8.0 0.00 0.03 0.00 49 1017.0
20260506201813 63 131 0.0 7.0 0.00 0.03 0.00 48 1017.0
20260506201307 63 293 3.0 7.0 0.00 0.03 0.00 50 1017.2
20260506200806 62 36 2.0 7.0 0.00 0.03 0.00 53 1017.5
20260506200301 62 340 2.0 7.0 0.00 0.03 0.00 47 1017.5
20260506195816 62 309 2.0 9.0 0.00 0.03 0.00 46 1017.7
20260506195311 62 121 3.0 9.0 0.00 0.03 0.00 49 1017.7
20260506194807 62 326 2.0 8.0 0.00 0.03 0.00 57 1017.7
20260506194303 62 360 3.0 8.0 0.00 0.03 0.00 52 1017.5
20260506193818 62 224 1.0 5.0 0.00 0.03 0.00 50 1017.9
20260506193332 62 44 1.0 9.0 0.00 0.03 0.00 55 1017.9
20260506192810 61 308 4.0 11.0 0.00 0.03 0.00 51 1018.0
20260506192306 61 343 4.0 12.0 0.00 0.03 0.00 51 1018.1
20260506191800 63 333 2.0 5.0 0.00 0.03 0.00 49 1018.0
20260506191315 62 270 0.0 8.0 0.00 0.03 0.00 54 1018.0
20260506190810 62 343 2.0 8.0 0.00 0.03 0.00 56 1018.1
20260506190305 62 9 2.0 7.0 0.00 0.03 0.00 57 1018.2
20260506185801 61 342 2.0 7.0 0.00 0.03 0.00 55 1018.3
20260506185300 62 306 1.0 8.0 0.00 0.03 0.00 53 1018.3
20260506184816 62 293 0.0 8.0 0.00 0.03 0.00 52 1018.4
20260506184310 62 319 1.0 5.0 0.00 0.03 0.00 58 1018.4
20260506183804 61 323 2.0 7.0 0.00 0.03 0.00 55 1018.6
20260506183319 61 325 0.0 7.0 0.00 0.03 0.00 55 1018.6
20260506182814 60 286 1.0 7.0 0.00 0.03 0.00 52 1018.8
20260506182307 60 326 0.0 7.0 0.00 0.03 0.00 59 1018.9
20260506181801 59 39 2.0 7.0 0.00 0.03 0.00 57 1018.9
20260506181335 60 313 0.0 9.0 0.00 0.03 0.00 54 1018.9
20260506180809 59 312 2.0 10.0 0.00 0.03 0.00 55 1019.1
20260506180308 59 322 5.0 10.0 0.00 0.03 0.00 54 1018.9
20260506175802 59 267 5.0 10.0 0.00 0.03 0.00 52 1018.9
20260506175317 59 10 4.0 9.0 0.00 0.03 0.00 51 1019.1
20260506174812 59 25 2.0 9.0 0.00 0.03 0.00 54 1019.2
20260506174307 59 316 0.0 7.0 0.00 0.03 0.00 55 1019.1
20260506173802 59 315 3.0 11.0 0.00 0.03 0.00 52 1019.1
20260506173337 60 307 2.0 6.0 0.00 0.03 0.00 58 1019.2